This demonstration page uses our WeatherBlox Daily Observations layout. Learn more.

Left ArrowRight Arrow

44.31136, -96.79839

Hourly Observations for August 14, 2017

Temp ( °F °C ) Dew Point ( °F °C ) Humidity (%) Winds ( mph kmh ) Pressure ( in mb ) Visibility ( mi km ) Precip ( " mm )
12:10 am 00:10 Partly Cloudy 61 16 59 15 94 94 SE 7 11 29.80 1009 N/A 0.00 0.00
12:19 am 00:19 Mostly Cloudy 61 16 61 16 100 100 ESE 7 11 29.80 1009 N/A 0.00 0.00
12:56 am 00:56 Mostly Cloudy 60 15.6 59 15 96 96 SE 3 6 29.86 1011 N/A 0.00 0.00
1:28 am 01:28 Partly Cloudy 59 15 57 14 94 94 Calm 29.80 1009 N/A 0.00 0.00
1:56 am 01:56 Clear 58 14.4 57 13.9 97 97 Calm 29.84 1011 N/A 0.00 0.00
2:34 am 02:34 Partly Cloudy 57 14 55 13 94 94 Calm 29.80 1009 N/A 0.00 0.00
2:44 am 02:44 Mostly Cloudy 57 14 57 14 100 100 Calm 29.80 1009 N/A 0.00 0.00
2:56 am 02:56 Cloudy 57 13.9 57 13.9 100 100 Calm 29.84 1011 N/A 0.00 0.00
3:29 am 03:29 Mostly Cloudy 57 14 57 14 100 100 Calm 29.80 1009 N/A 0.00 0.00
3:56 am 03:56 Cloudy 57 13.9 57 13.9 100 100 Calm 29.84 1011 N/A 0.00 0.00
4:30 am 04:30 Partly Cloudy 57 14 57 14 100 100 Calm 29.80 1009 N/A 0.01 0.25
4:46 am 04:46 Mostly Cloudy 59 15 57 14 94 94 Calm 29.80 1009 N/A 0.01 0.25
4:56 am 04:56 Cloudy 59 15 58 14.4 96 96 N 5 7 29.85 1011 N/A 0.01 0.25
5:56 am 05:56 Cloudy 59 15 59 15 100 100 W 5 7 29.85 1011 N/A 0.00 0.00
6:56 am 06:56 Cloudy 59 15 59 15 100 100 NNW 8 13 29.87 1012 N/A 0.00 0.00
7:56 am 07:56 Cloudy 59 15 59 15 100 100 NW 7 11 29.88 1012 N/A 0.00 0.00
8:56 am 08:56 Cloudy 59 15 58 14.4 96 96 NNW 8 13 29.88 1012 N/A 0.00 0.00
9:35 am 09:35 Cloudy 59 15 59 15 100 100 N 7 11 29.83 1010 N/A 0.00 0.00
9:52 am 09:52 Cloudy 61 16 59 15 94 94 N 7 11 29.83 1010 N/A 0.00 0.00
9:56 am 09:56 Cloudy 61 16.1 59 15 93 93 N 6 9 29.89 1012 N/A 0.00 0.00
10:16 am 10:16 Cloudy 63 17 59 15 88 88 N 7 11 29.83 1010 N/A 0.00 0.00
10:32 am 10:32 Cloudy 63 17 57 14 83 83 N 8 13 29.83 1010 N/A 0.00 0.00
10:56 am 10:56 Mostly Cloudy 63 17.2 58 14.4 84 84 N 6 9 29.89 1012 N/A 0.00 0.00
11:56 am 11:56 Cloudy 66 18.9 58 14.4 75 75 N 10 17 29.88 1012 N/A 0.00 0.00
12:19 pm 12:19 Partly Cloudy 68 20 59 15 73 73 N 9 15 29.80 1009 N/A 0.00 0.00
12:43 pm 12:43 Mostly Cloudy 68 20 57 14 69 69 NNE 8 13 29.80 1009 N/A 0.00 0.00
12:56 pm 12:56 Mostly Cloudy 69 20.6 59 15 70 70 N 9 15 29.88 1012 N/A 0.00 0.00
1:52 pm 13:52 Mostly Cloudy 70 21 59 15 69 69 NE 9 15 29.80 1009 N/A 0.00 0.00
1:56 pm 13:56 Mostly Cloudy 70 21.1 58 14.4 66 66 ENE 9 15 29.89 1012 N/A 0.00 0.00
2:56 pm 14:56 Mostly Cloudy 72 22.2 59 15 64 64 ENE 10 17 29.88 1012 N/A 0.00 0.00
3:56 pm 15:56 Cloudy 71 21.7 59 15 66 66 NE 9 15 29.89 1012 N/A 0.00 0.00
4:56 pm 16:56 Mostly Cloudy 72 22.2 59 15 64 64 ENE 10 17 29.89 1012 N/A 0.00 0.00
5:56 pm 17:56 Sunny 71 21.7 59 15 66 66 NE 10 17 29.89 1012 N/A 0.00 0.00
6:56 pm 18:56 Sunny 70 21.1 60 15.6 71 71 E 8 13 29.89 1012 N/A 0.00 0.00
7:56 pm 19:56 Sunny 68 20 60 15.6 76 76 E 8 13 29.90 1013 N/A 0.00 0.00
8:56 pm 20:56 Clear 65 18.3 60 15.6 84 84 E 7 11 29.91 1013 N/A 0.00 0.00
9:56 pm 21:56 Clear 64 17.8 60 15.6 87 87 E 7 11 29.92 1013 N/A 0.00 0.00
10:56 pm 22:56 Clear 62 16.7 59 15 90 90 ESE 6 9 29.94 1014 N/A 0.00 0.00
11:56 pm 23:56 Clear 60 15.6 59 15 96 96 Calm 29.94 1014 N/A 0.00 0.00

Powered by AerisWeather